Home   Weather   Bellinzona   Past weeks

Flag for Switzerland Past Weather in Bellinzona, Ticino, Switzerland — Yesterday and Last 2 Weeks

Now
38 °F

Chilly.


Feels Like: 38 °F
Forecast: 40 / 46 °F
Wind: 1 mph from Northeast

Location: Locarno-Magadino

Current Time: Feb 27, 2017 at 4:11:09 am

Latest Report: Feb 27, 2017 at 3:00 am


Visibility: N/A

Pressure: 30.10 "Hg

Humidity: 82%

Dew Point: 33 °F

Location of BellinzonaLocation

Past Weather in Bellinzona — Graph

°F

Bellinzona Temperature Yesterday

Maximum temperature yesterday: 53 °F (at 2:00 pm)
Minimum temperature yesterday: 30 °F (at 5:00 am)
Average temperature yesterday: 41 °F

High & Low Weather Summary for the Past Weeks

 TemperatureHumidityPressure
High61 °F (Feb 24, 5:00 pm)100% (Feb 15, 3:00 am)30.67 "Hg (Feb 15, 3:00 am)
Low28 °F (Feb 20, 7:00 am)18% (Feb 24, 8:00 pm)29.68 "Hg (Feb 24, 3:00 pm)
Average42 °F74%30.25 "Hg
* Reported Feb 12 2:00 am — Feb 27 2:00 am, Bellinzona, Weather by CustomWeather, © 2017

Note: Actual official high and low records may vary slightly from our data, if they occured in-between our weather recording intervals... More about our weather records

Advertising

Bellinzona Weather History for the Previous 24 Hours

Scroll right to see more
 ConditionsComfort  
Time TempWeatherWind HumidityBarometerVisibility
2:00 am
Mon, Feb 27
39 °FChilly.2 mph76%30.11 "HgN/A
1:00 am40 °FQuite cool.2 mph73%30.10 "HgN/A
12:00 am40 °FChilly.No wind82%30.11 "HgN/A
11:00 pm
Sun, Feb 26
40 °FChilly.No wind84%30.11 "HgN/A
10:00 pm40 °FQuite cool.No wind79%30.10 "HgN/A
9:00 pm43 °FQuite cool.1 mph67%30.09 "HgN/A
8:00 pm41 °FQuite cool.1 mph80%30.08 "HgN/A
7:00 pm44 °FQuite cool.2 mph72%30.07 "HgN/A
6:00 pm50 °FCool.1 mph50%30.05 "HgN/A
5:00 pm52 °FCool.1 mph41%30.04 "HgN/A
4:00 pm53 °FCool.5 mph41%30.04 "HgN/A
3:00 pm53 °FCool.2 mph38%30.05 "HgN/A
2:00 pm53 °FCool.3 mph36%30.07 "HgN/A
1:00 pm52 °FCool.5 mph36%30.10 "HgN/A
12:00 pm50 °FCool.1 mph42%30.13 "HgN/A
11:00 am47 °FCool.1 mph43%30.15 "HgN/A
10:00 am42 °FQuite cool.2 mph61%30.18 "HgN/A
9:00 am35 °FChilly.1 mph81%30.21 "HgN/A
8:00 am31 °FChilly.No wind88%30.22 "HgN/A
7:00 am31 °FChilly.No wind87%30.22 "HgN/A
6:00 am34 °FChilly.3 mph76%30.22 "HgN/A
5:00 am30 °FChilly.1 mph90%30.24 "HgN/A
4:00 am31 °FChilly.1 mph87%30.24 "HgN/A
Weather by CustomWeather, © 2017

See weather overviewHow to use our weather pages